Location: Asheville, NC
(35.6000°N, 82.5500°W)
Time: 20:37:09
(UTC-04:00)

XW-2B - Pass Details

Date: 08 January 2018
Orbit: 510 x 530 km, 97.5° (Epoch: 22 June)

Event Time Altitude Azimuth Distance (km) Brightness Sun altitude
Rises 19:01:04 0° 213° (SSW) 2,653 ? -17.3°
Reaches altitude 10° 19:04:34 10° 248° (WSW) 1,773 ? -18.0°
Maximum altitude 19:05:50 11° 268° (W) 1,689 ? -18.3°
Drops below altitude 10° 19:07:07 10° 287° (WNW) 1,779 ? -18.5°
Sets 19:10:39 0° 322° (NW) 2,676 ? -19.2°
